[[{"header":{"parameterUnit":"m.s-1","parameterCategory":1,"la1":30.2991,"la2":30.254,"lo1":-89.0895,"lo2":-89.0444,"dy":0.0017,"dx":0.0017,"nx":28,"ny":28,"refTime":"2024-11-27T09:00:00:Z","depth":0,"parameterNumber":2,"parameterNumberName":"U-component_of_WINDS"},"data":[0,0,0,0,0,0,0,0,0,0,0,0,0,0,0,0,0,0,0,0,0,0,0,0,0,0,0,0,0,0,0,0,0,0,0,0,0,0,0,0,0,0,0,0,0,0,0,0,0,0,0,0,0,0,0,0,0,0,-1.123,-1.1231,0,-1.132,-1.1321,-1.1322,-1.1311,-1.1309,-1.1308,-1.1306,-1.14,-1.1403,-1.1407,0,0,0,0,0,0,0,0,0,0,0,0,0,-1.105,-1.1053,-1.123,-1.1231,-1.1233,-1.132,-1.1321,-1.1322,-1.1311,-1.1309,-1.1307,-1.1306,-1.1398,-1.1403,-1.1408,0,0,0,0,0,0,0,0,0,0,0,0,0,-1.1133,-1.1054,-1.123,-1.1237,-1.1239,-1.132,-1.1321,-1.1323,-1.1311,-1.1309,-1.1307,-1.1305,-1.1397,-1.1402,-1.1408,-1.1488,0,0,-1.1426,-1.1428,0,0,0,0,0,0,0,0,-1.1128,-1.1139,-1.1235,-1.1237,-1.1239,-1.1302,-1.1292,-1.1378,-1.1312,-1.1284,-1.1306,-1.1304,-1.1369,-1.1377,-1.1399,-1.1492,-1.1496,-1.1426,-1.143,-1.1432,-1.1434,0,0,0,0,0,0,0,-1.1122,-1.1136,-1.1266,-1.1237,-1.1239,-1.1236,-1.1246,-1.1308,-1.1338,-1.1286,-1.1286,-1.1296,-1.137,-1.1393,-1.1401,-1.1497,-1.1426,-1.1431,-1.1435,-1.1437,-1.166,-1.1662,0,0,0,0,0,0,-1.1115,-1.1131,-1.1263,-1.1268,-1.1177,-1.1241,-1.1252,-1.1284,-1.1337,-1.1343,-1.1298,-1.1295,-1.1384,-1.1394,-1.1404,-1.1501,-1.1432,-1.1438,-1.1441,-1.1657,-1.166,-1.1663,0,0,0,0,0,0,-1.1111,-1.1127,-1.1259,-1.12,-1.1216,-1.1247,-1.1283,-1.1287,-1.131,-1.1346,-1.1351,-1.1317,-1.1383,-1.1396,-1.1467,-1.1504,-1.144,-1.1445,-1.1654,-1.1658,-1.1662,-1.1694,0,0,0,0,0,0,-1.1106,-1.1125,-1.1156,-1.12,-1.1219,-1.1321,-1.1285,-1.129,-1.132,-1.1318,-1.1365,-1.137,-1.1382,-1.1458,-1.1472,-1.151,-1.145,-1.1651,-1.1656,-1.166,-1.169,-1.1699,-1.1706,0,0,0,0,0,-1.1099,-1.1162,-1.1157,-1.1174,-1.1258,-1.1323,-1.1334,-1.1346,-1.1323,-1.1354,-1.1377,-1.1369,-1.1497,-1.1465,-1.1481,-1.1522,-1.1649,-1.1655,-1.166,-1.1687,-1.1697,-1.1706,0,0,0,0,0,0,-1.1122,-1.1168,-1.1164,-1.1242,-1.1279,-1.1321,-1.1361,-1.1356,-1.14,-1.1396,-1.1409,-1.142,-1.1492,-1.1513,-1.1478,-1.1601,-1.157,-1.1579,-1.1585,-1.1595,-1.1603,-1.1597,-1.1455,0,0,0,0,0,-1.1136,-1.1184,-1.1222,-1.1288,-1.1306,-1.133,-1.1359,-1.1364,-1.1403,-1.1418,-1.1446,-1.1484,-1.1533,-1.1565,-1.1611,-1.1692,-1.1703,-1.1728,-1.1736,-1.1742,-1.175,-1.1795,-1.1806,-1.1681,-1.1681,-1.1681,0,0,-1.1166,-1.1197,-1.1227,-1.1293,-1.1322,-1.1372,-1.1343,-1.1398,-1.1435,-1.1427,-1.1496,-1.1517,-1.156,-1.1636,-1.1671,-1.1657,-1.1787,-1.1749,-1.1754,-1.1759,-1.1802,-1.1813,-1.1824,-1.1685,-1.1684,-1.1684,0,0,-1.1246,-1.1274,-1.1332,-1.1361,-1.1405,-1.142,-1.1434,-1.1476,-1.149,-1.1559,-1.1554,-1.1598,-1.1682,-1.1712,-1.1739,-1.1829,-1.1823,-1.1843,-1.1886,-1.1929,-1.1939,-1.1947,-1.198,-1.1992,-1.1851,-1.1851,-1.1851,0,-1.1278,-1.1353,-1.1363,-1.1418,-1.1447,-1.144,-1.1499,-1.1527,-1.1584,-1.1604,-1.1587,-1.1691,-1.1719,-1.1803,-1.1824,-1.1846,-1.1862,-1.1839,-1.1936,-1.1945,-1.1954,-1.1985,-1.1997,-1.1853,-1.1853,-1.1853,-1.1853,0,-1.139,-1.1442,-1.1484,-1.1538,-1.1572,-1.1628,-1.1647,-1.1679,-1.1682,-1.1699,-1.1768,-1.1802,-1.1855,-1.1875,-1.1878,-1.1958,-1.1948,-1.1933,-1.1902,-1.1968,-1.1997,-1.2009,-1.1857,-1.1856,-1.1855,-1.1855,0,0,-1.149,-1.1547,-1.1563,-1.1587,-1.1634,-1.1674,-1.173,-1.1781,-1.1809,-1.1848,-1.1895,-1.1965,-1.1951,-1.1981,-1.1987,-1.2025,-1.2094,-1.2006,-1.2007,-1.2022,-1.2185,-1.2197,-1.2211,-1.209,-1.2092,-1.2094,-1.2182,0,-1.1575,-1.1674,-1.1684,-1.1772,-1.182,-1.1814,-1.1862,-1.1896,-1.1913,-1.1956,-1.1974,-1.2024,-1.2002,-1.202,-1.2056,-1.2078,-1.2128,-1.2072,-1.2135,-1.2137,-1.2126,-1.2226,-1.2239,-1.2321,-1.2194,-1.2196,-1.2197,0,-1.1689,-1.1731,-1.1824,-1.1863,-1.1883,-1.1927,-1.1974,-1.2015,-1.2053,-1.2063,-1.2095,-1.2096,-1.2153,-1.2118,-1.2198,-1.2159,-1.2185,-1.22,-1.2203,-1.2211,-1.2172,-1.2238,-1.2347,-1.236,-1.2215,-1.2214,-1.2212,0,-1.1753,-1.1832,-1.1898,-1.1919,-1.1966,-1.1997,-1.2018,-1.2053,-1.2083,-1.2124,-1.2144,-1.2191,-1.2218,-1.2254,-1.2267,-1.2241,-1.2346,-1.2312,-1.2356,-1.2356,-1.238,-1.2379,-1.2496,-1.2394,-1.2394,-1.2394,-1.2394,0,-1.1849,-1.1907,-1.1927,-1.1968,-1.2032,-1.2042,-1.2105,-1.2124,-1.2156,-1.22,-1.2197,-1.2238,-1.2253,-1.2297,-1.2307,-1.2371,-1.2383,-1.2392,-1.2395,-1.2394,-1.2392,-1.2412,-1.2407,-1.2397,-1.2397,-1.2396,-1.2395,0,-1.1933,-1.1949,-1.202,-1.2058,-1.2069,-1.2115,-1.2147,-1.2187,-1.2201,-1.2258,-1.2271,-1.2295,-1.2347,-1.2363,-1.2425,-1.2432,-1.2507,-1.2504,-1.2495,-1.2495,-1.2538,-1.2534,-1.2674,-1.2693,-1.2577,-1.2578,-1.2579,0,-1.1993,-1.2037,-1.208,-1.2109,-1.2131,-1.2178,-1.2208,-1.2219,-1.225,-1.2296,-1.2329,-1.238,-1.2421,-1.2504,-1.2527,-1.2574,-1.2573,-1.2618,-1.258,-1.2577,-1.2575,-1.2572,-1.2577,-1.2626,-1.2627,-1.2628,-1.2629,0,-1.21,-1.2105,-1.2149,-1.2195,-1.2231,-1.2268,-1.2303,-1.2327,-1.2343,-1.2378,-1.243,-1.2462,-1.2525,-1.2575,-1.2623,-1.2645,-1.264,-1.264,-1.2653,-1.2653,-1.2646,-1.2651,-1.2516,-1.2638,-1.2637,-1.2636,-1.2636,-1.2635,-1.2175,-1.2213,-1.2249,-1.2297,-1.2325,-1.2358,-1.2396,-1.2415,-1.2459,-1.2511,-1.2514,-1.257,-1.2606,-1.2669,-1.2693,-1.2737,-1.2724,-1.2743,-1.2748,-1.2752,-1.2756,-1.2638,-1.2746,-1.2746,-1.2745,-1.2745,-1.2745,0,-1.2282,-1.2304,-1.2348,-1.2397,-1.2435,-1.2426,-1.2464,-1.2496,-1.2546,-1.2579,-1.2619,-1.2679,-1.2727,-1.2753,-1.2802,-1.2832,-1.2831,-1.2844,-1.2843,-1.2848,-1.2765,-1.2749,-1.2844,-1.2844,-1.2844,-1.2844,-1.2844,-1.2844,-1.2342,-1.2407,-1.2416,-1.2494,-1.2516,-1.2571,-1.2594,-1.2624,-1.265,-1.2717,-1.2757,-1.2773,-1.2803,-1.2853,-1.2897,-1.2904,-1.2922,-1.2937,-1.2942,-1.2864,-1.2854,-1.2844,-1.283,-1.2941,-1.2941,-1.3022,-1.3023,-1.3023]},{"header":{"parameterUnit":"m.s-1","parameterCategory":1,"la1":30.2991,"la2":30.254,"lo1":-89.0895,"lo2":-89.0444,"dy":0.0017,"dx":0.0017,"nx":28,"ny":28,"refTime":"2024-11-27T09:00:00:Z","depth":0,"parameterNumber":3,"parameterNumberName":"V-component_of_WINDS"},"data":[0,0,0,0,0,0,0,0,0,0,0,0,0,0,0,0,0,0,0,0,0,0,0,0,0,0,0,0,0,0,0,0,0,0,0,0,0,0,0,0,0,0,0,0,0,0,0,0,0,0,0,0,0,0,0,0,0,0,-7.6545,-7.6546,0,-7.6664,-7.6666,-7.6667,-7.6599,-7.6595,-7.6592,-7.6589,-7.6704,-7.671,-7.6716,0,0,0,0,0,0,0,0,0,0,0,0,0,-7.6249,-7.6255,-7.6544,-7.6546,-7.6548,-7.6664,-7.6666,-7.6667,-7.6599,-7.6595,-7.6591,-7.6587,-7.6702,-7.6709,-7.6717,0,0,0,0,0,0,0,0,0,0,0,0,0,-7.6374,-7.6257,-7.6544,-7.6528,-7.6527,-7.6664,-7.6666,-7.6668,-7.66,-7.6595,-7.659,-7.6585,-7.67,-7.6709,-7.6718,-7.6875,0,0,-7.6746,-7.675,0,0,0,0,0,0,0,0,-7.6367,-7.6385,-7.6529,-7.6529,-7.6529,-7.6612,-7.6604,-7.6737,-7.6601,-7.6572,-7.6589,-7.6583,-7.6677,-7.6688,-7.6721,-7.688,-7.6885,-7.6747,-7.6752,-7.6756,-7.6759,0,0,0,0,0,0,0,-7.6359,-7.6379,-7.6592,-7.6531,-7.6531,-7.6512,-7.6524,-7.6629,-7.6651,-7.6574,-7.657,-7.6585,-7.6676,-7.6712,-7.6723,-7.6887,-7.6747,-7.6755,-7.6761,-7.6764,-7.718,-7.7185,0,0,0,0,0,0,-7.6352,-7.6373,-7.6588,-7.6595,-7.6434,-7.6521,-7.6535,-7.659,-7.665,-7.6654,-7.6589,-7.6582,-7.6699,-7.6712,-7.6727,-7.6914,-7.6756,-7.6765,-7.677,-7.7174,-7.7181,-7.7187,0,0,0,0,0,0,-7.6346,-7.6372,-7.6583,-7.6483,-7.6508,-7.6532,-7.6594,-7.6595,-7.6631,-7.6661,-7.6664,-7.6623,-7.6695,-7.6714,-7.6839,-7.6917,-7.6769,-7.6778,-7.7168,-7.7176,-7.7184,-7.7291,0,0,0,0,0,0,-7.6338,-7.637,-7.6432,-7.6485,-7.6514,-7.6696,-7.6599,-7.6601,-7.6648,-7.6639,-7.6693,-7.6697,-7.6693,-7.6825,-7.6848,-7.6927,-7.6785,-7.7161,-7.7172,-7.7181,-7.728,-7.7301,-7.732,0,0,0,0,0,-7.6328,-7.6456,-7.6435,-7.6462,-7.6592,-7.67,-7.6717,-7.6711,-7.6655,-7.6716,-7.6735,-7.6695,-7.6905,-7.6839,-7.6864,-7.6947,-7.7156,-7.7169,-7.7181,-7.7271,-7.7297,-7.7319,0,0,0,0,0,0,-7.6408,-7.6462,-7.644,-7.659,-7.6642,-7.6689,-7.6765,-7.6739,-7.6805,-7.6794,-7.6782,-7.6795,-7.6925,-7.6948,-7.6873,-7.7101,-7.7021,-7.7039,-7.7082,-7.7107,-7.7126,-7.7117,-7.6793,0,0,0,0,0,-7.6444,-7.653,-7.6571,-7.6699,-7.6727,-7.6742,-7.6789,-7.678,-7.6832,-7.6853,-7.6881,-7.6931,-7.7007,-7.7058,-7.7131,-7.7283,-7.7293,-7.7352,-7.7372,-7.7388,-7.7404,-7.7485,-7.7512,-7.7227,-7.7227,-7.7227,0,0,-7.6518,-7.6558,-7.6613,-7.6717,-7.6755,-7.6843,-7.676,-7.6856,-7.692,-7.6866,-7.6987,-7.7009,-7.7064,-7.7203,-7.7266,-7.7226,-7.7484,-7.7404,-7.7417,-7.7423,-7.75,-7.7527,-7.7551,-7.7236,-7.7234,-7.7233,0,0,-7.6697,-7.6737,-7.6848,-7.6889,-7.695,-7.6959,-7.6986,-7.7037,-7.7051,-7.7172,-7.7134,-7.7208,-7.7341,-7.7382,-7.7419,-7.7614,-7.758,-7.7638,-7.7741,-7.782,-7.7843,-7.7862,-7.7931,-7.7956,-7.7653,-7.7653,-7.7654,0,-7.678,-7.6913,-7.6907,-7.7007,-7.7053,-7.7011,-7.7122,-7.7161,-7.7241,-7.7273,-7.7228,-7.7395,-7.7428,-7.7576,-7.7624,-7.7656,-7.7684,-7.7631,-7.784,-7.786,-7.7878,-7.7944,-7.797,-7.766,-7.7659,-7.7659,-7.7658,0,-7.7012,-7.7104,-7.7186,-7.7268,-7.7323,-7.7427,-7.7435,-7.7491,-7.7478,-7.7491,-7.7614,-7.7653,-7.7733,-7.7767,-7.7754,-7.7913,-7.7887,-7.7842,-7.7761,-7.7912,-7.7973,-7.7998,-7.767,-7.7667,-7.7665,-7.7663,0,0,-7.7245,-7.7323,-7.7353,-7.739,-7.7454,-7.7524,-7.7625,-7.7705,-7.7753,-7.781,-7.7893,-7.8007,-7.7966,-7.8009,-7.8,-7.807,-7.8221,-7.8016,-7.8017,-7.8052,-7.8397,-7.8431,-7.846,-7.8199,-7.8203,-7.8207,-7.8393,0,-7.7428,-7.7609,-7.7607,-7.7773,-7.7857,-7.7819,-7.7907,-7.7954,-7.797,-7.8041,-7.8056,-7.8137,-7.8077,-7.8103,-7.817,-7.8188,-7.829,-7.8175,-7.8274,-7.8278,-7.8262,-7.8492,-7.8528,-7.8701,-7.8416,-7.842,-7.8423,0,-7.7666,-7.7733,-7.7909,-7.7961,-7.7996,-7.8076,-7.8149,-7.8219,-7.8271,-7.8276,-7.8325,-7.8305,-7.8406,-7.8323,-7.846,-7.8382,-7.8423,-7.8438,-7.8444,-7.8453,-7.836,-7.8506,-7.8756,-7.8782,-7.8461,-7.8458,-7.8455,0,-7.7818,-7.7952,-7.8074,-7.8107,-7.817,-7.8227,-7.8256,-7.8304,-7.8352,-7.8415,-7.8446,-7.8519,-7.8558,-7.8614,-7.8613,-7.8553,-7.8752,-7.8669,-7.8758,-7.8758,-7.8801,-7.8799,-7.9061,-7.8829,-7.8828,-7.8828,-7.8827,0,-7.8022,-7.8131,-7.8144,-7.8219,-7.8339,-7.8334,-7.8452,-7.8475,-7.8518,-7.8595,-7.8565,-7.8637,-7.8632,-7.8705,-7.8705,-7.8818,-7.8836,-7.8842,-7.8841,-7.8845,-7.8844,-7.8871,-7.8858,-7.8835,-7.8833,-7.8832,-7.8831,0,-7.8212,-7.8225,-7.8356,-7.8406,-7.8421,-7.8508,-7.8549,-7.8619,-7.8632,-7.873,-7.8752,-7.8772,-7.8855,-7.8861,-7.8957,-7.8956,-7.9094,-7.9079,-7.9077,-7.9074,-7.9163,-7.9154,-7.9451,-7.9489,-7.9233,-7.9235,-7.9237,0,-7.8341,-7.8425,-7.8484,-7.8535,-7.8568,-7.865,-7.87,-7.8698,-7.875,-7.8816,-7.8878,-7.896,-7.9025,-7.9161,-7.9181,-7.9254,-7.9241,-7.934,-7.9251,-7.9253,-7.9241,-7.9236,-7.9244,-7.9356,-7.9359,-7.9362,-7.9364,0,-7.8569,-7.8572,-7.8647,-7.8724,-7.8785,-7.8845,-7.89,-7.8943,-7.8947,-7.9007,-7.9094,-7.9145,-7.9244,-7.9325,-7.9396,-7.9422,-7.9394,-7.9391,-7.9416,-7.942,-7.9416,-7.9419,-7.9124,-7.9384,-7.9382,-7.9381,-7.938,-7.9379,-7.8733,-7.8805,-7.8859,-7.8942,-7.8984,-7.9037,-7.9106,-7.9128,-7.9202,-7.9284,-7.9277,-7.9373,-7.9422,-7.9515,-7.9548,-7.9621,-7.9587,-7.9622,-7.9631,-7.9639,-7.9649,-7.9405,-7.9633,-7.9633,-7.9632,-7.9632,-7.9631,0,-7.8959,-7.8992,-7.9069,-7.9149,-7.9215,-7.9185,-7.9244,-7.93,-7.9386,-7.9435,-7.9501,-7.96,-7.9678,-7.9705,-7.9781,-7.9834,-7.9822,-7.9854,-7.9849,-7.9856,-7.9675,-7.9646,-7.9862,-7.9862,-7.9862,-7.9862,-7.9862,-7.9862,-7.9084,-7.9205,-7.9214,-7.9354,-7.9385,-7.9481,-7.9518,-7.9566,-7.9605,-7.9718,-7.9784,-7.9802,-7.9842,-7.992,-7.999,-7.9995,-8.0024,-8.0061,-8.0061,-7.9892,-7.9868,-7.9846,-7.9819,-8.0067,-8.0068,-8.0235,-8.0237,-8.0238]}]]